Flag for Germany Weather past 2 weeks in Regensburg, Bavaria, Germany

Now
33 °F

Light snow. Scattered clouds.


Feels Like: 30 °F
Forecast: 37 / 44 °F
Wind: 3 mph from Southeast

Location: Regensburg

Current Time: Mar 1, 2015 at 9:35:21 AM

Latest Report: Mar 1, 2015 at 9:00 AM


Visibility: 1 mi

Pressure: 29.93 "Hg

Humidity: 95%

Dew point: 32 °F

Location of RegensburgLocation

Historic Weather in Regensburg — Graph

°F

Regensburg temperature yesterday

Maximum temperature yesterday: 40 °F (at 3:00 PM)
Minimum temperature yesterday: 35 °F (at 7:00 AM)
Average temperature yesterday: 37 °F

Past Weeks' High & Low Weather Summary

 TemperatureHumidityPressure
High49 °F (Feb 27, 4:00 PM)100% (Feb 23, 5:00 AM)30.80 "Hg (Feb 23, 5:00 AM)
Low22 °F (Feb 15, 4:00 AM)42% (Feb 27, 5:00 PM)29.54 "Hg (Feb 21, 4:00 PM)
Average33 °F87%30.09 "Hg
* Reported Feb 14 8:00 AM — Mar 1 8:00 AM, Regensburg, Weather by CustomWeather, © 2015

Note: Actual official high and low records may vary slightly from our data, if they occured in-between our weather recording intervals... More about our weather records

Advertising

Regensburg weather history for previous 24 hours

 ConditionsComfort  
Time TempWeatherWind HumidityBarometerVisibility
8:00 AM
Sun, Mar 1
32 °FFog.3 mph97%29.94 "Hg2 mi
7:00 AM32 °FFog.3 mph98%29.94 "Hg1 mi
6:00 AM32 °FFog.3 mph98%29.96 "Hg1 mi
5:00 AM32 °FFog.2 mph99%29.98 "Hg1 mi
4:00 AM31 °FFog.2 mph98%29.99 "Hg2 mi
3:00 AM31 °FFog.2 mph98%30.02 "Hg2 mi
2:00 AM32 °FFog.2 mph98%30.05 "Hg2 mi
1:00 AM34 °FFog.1 mph96%30.06 "Hg2 mi
12:00 AM35 °FFog.1 mph95%30.07 "Hg3 mi
11:00 PM
Sat, Feb 28
35 °FFog.1 mph96%30.10 "Hg3 mi
10:00 PM36 °FFog.2 mph92%30.11 "Hg4 mi
9:00 PM37 °FOvercast.2 mph90%30.12 "Hg5 mi
8:00 PM38 °FOvercast.2 mph85%30.13 "Hg7 mi
7:00 PM39 °FOvercast.2 mph83%30.13 "Hg7 mi
6:00 PM39 °FOvercast.1 mph80%30.13 "Hg14 mi
5:00 PM40 °FOvercast.1 mph78%30.13 "Hg13 mi
4:00 PM40 °FOvercast.1 mph77%30.13 "Hg11 mi
3:00 PM40 °FOvercast.1 mph73%30.14 "Hg11 mi
2:00 PM39 °FOvercast.1 mph78%30.16 "Hg7 mi
1:00 PM39 °FOvercast.1 mph82%30.17 "Hg6 mi
12:00 PM38 °FLow clouds.1 mph85%30.19 "Hg4 mi
11:00 AM36 °FDrizzle. Low clouds.2 mph93%30.21 "Hg4 mi
10:00 AM35 °FLow clouds.1 mph93%30.20 "Hg4 mi
9:00 AM35 °FFreezing rain. Low clouds.1 mph94%30.19 "Hg3 mi
Weather by CustomWeather, © 2015

See weather overviewHow to use our weather pages